Location: Austin
(30.3000°N, 97.7500°W)
Time: 03:46:35
(UTC-05:00)

CZ-4B R/B - Pass Details

Date: 01 October 2024
Orbit: 460 x 604 km, 97.9° (Epoch: 06 October)

Event Time Altitude Azimuth Distance (km) Brightness Sun altitude
Exits shadow 21:10:15 27° 2° (N) 1,165 4.5 -25.5°
Drops below altitude 10° 21:12:15 10° 355° (N) 1,949 5.8 -25.9°
Sets 21:14:28 0° 352° (N) 2,861 6.7 -26.4°
